Location: Stuttgart
(48.8069°N, 9.1544°E)
Time: 05:24:44
(UTC+01:00)

ISS - Visible Passes

Search period start: 21 November 2017 00:00
Search period end: 01 December 2017 00:00
Orbit: 402 x 407 km, 51.6° (Epoch: 21 November)

Date Brightness Start Highest point End Pass type
(mag) Time Alt. Az. Time Alt. Az. Time Alt. Az.
27 Nov -1.0 19:07:20 10° SSW 19:07:53 13° SSW 19:07:53 13° SSW visible
28 Nov -2.0 18:15:41 10° S 18:17:53 19° SE 18:17:53 19° SE visible
29 Nov -1.4 17:24:46 10° SSE 17:25:58 12° SE 17:27:09 10° ESE visible
29 Nov -2.0 18:58:38 10° SW 19:00:27 29° SW 19:00:27 29° SW visible
30 Nov -2.9 18:06:32 10° SW 18:09:34 36° SSE 18:10:17 31° ESE visible
30 Nov -0.3 19:42:41 10° W 19:42:56 12° W 19:42:56 12° W visible
